Record,Date/Time,10,Tamb(K),Rh(%),Pres(mb),Tir(K),Rain,Az(deg),El(deg),TkBB(K), Ch  22.234, Ch  23.034, Ch  23.834, Ch  26.234, Ch  30.000, Ch  51.248, Ch  52.280, Ch  53.848, Ch  54.940, Ch  56.660, Ch  57.288, Ch  58.800, Ch 
Record,Date/Time,40,Tamb(K),Rh(%),Pres(mb),Tir(K),Rain
Record,Date/Time,50,Az(deg),El(deg),TkBB(K), Ch  22.000, Ch  22.234, Ch  22.500, Ch  23.000, Ch  23.034, Ch  23.500, Ch  23.834, Ch  24.000, Ch  24.500, Ch  25.000, Ch  25.500, Ch  26.000, Ch  26.234, Ch  26.500, Ch  27.000, Ch  27.500, Ch  28.000, Ch  28.500, Ch  29.000, Ch  29.500, Ch  30.000, Ch  51.248, Ch  51.760, Ch  52.280, Ch  52.804, Ch  53.336, Ch  53.848, Ch  54.400, Ch  54.940, Ch  55.500, Ch  56.020, Ch  56.660, Ch  57.288, Ch  57.964, Ch  58.800, Ch 
Record,Date/Time,80,ID,SNR,Tamb(K),Rh(%),Pres(mb),Tir(K),Rain,Az(deg),El(deg),TkBB(K), Ch  22.234, Ch  23.034, Ch  23.834, Ch  26.234, Ch  30.000, Ch  51.248, Ch  52.280, Ch  53.848, Ch  54.940, Ch  56.660, Ch  57.288, Ch  58.800, Ch 
     1,07/02/19 00:04:40,41, 288.1870,  79.2800,1015.5660, 214.2300,1
     2,07/02/19 00:05:23,51,  0.00, 19.80,300.671, 69.076, 72.237, 72.473, 68.920, 69.448, 65.429, 61.583, 59.910, 54.332, 49.632, 47.537, 44.031, 43.170, 42.596, 41.839, 41.122, 39.823, 39.447, 38.586, 39.814, 40.750,216.065,235.641,256.918,275.101,285.788,289.485,289.387,289.286,289.306,287.543,287.739,286.427,287.247,286.733,
     3,07/02/19 00:05:45,51,  0.00, 90.00,300.667, 27.004, 28.108, 28.311, 26.742, 27.410, 25.827, 24.351, 23.758, 21.417, 19.996, 18.692, 17.737, 17.672, 17.010, 17.434, 17.135, 16.798, 16.237, 16.174, 16.584, 17.082,112.421,130.357,156.022,188.975,225.934,259.089,280.296,288.773,290.724,288.724,289.193,286.417,288.228,287.314,
     4,07/02/19 00:06:07,51,  0.00,160.20,300.714, 65.347, 68.116, 67.715, 64.650, 65.150, 61.020, 57.382, 56.181, 50.948, 47.463, 44.486, 41.461, 41.145, 40.014, 39.905, 38.921, 38.413, 37.722, 37.345, 38.154, 39.517,214.468,234.397,256.559,275.507,286.541,290.622,291.125,291.184,290.640,288.571,288.924,287.299,288.193,287.458,
     5,07/02/19 00:06:30,41, 288.1870,  79.4400,1015.5420, 215.4800,1
     6,07/02/19 00:07:14,51,  0.00, 19.80,300.666, 69.158, 72.345, 72.646, 69.377, 69.109, 65.012, 61.457, 60.067, 55.113, 49.939, 47.427, 43.986, 43.364, 42.390, 41.747, 41.401, 39.704, 39.650, 38.761, 40.092, 41.200,215.614,235.489,256.631,274.364,285.671,289.229,289.269,289.667,289.410,287.362,287.853,286.007,287.403,287.207,
     7,07/02/19 00:07:36,51,  0.00, 90.00,300.665, 26.832, 28.640, 28.506, 27.513, 27.494, 25.983, 24.320, 23.718, 21.821, 19.838, 18.977, 17.363, 17.083, 16.887, 17.104, 17.159, 15.719, 16.518, 15.933, 16.270, 17.218,111.735,130.163,155.699,187.907,225.698,259.351,280.530,288.548,290.920,289.104,289.631,286.002,288.120,288.590,
     8,07/02/19 00:07:58,51,  0.00,160.20,300.698, 64.819, 67.834, 67.471, 64.629, 64.839, 60.447, 57.491, 56.532, 50.972, 47.010, 44.193, 40.921, 40.839, 39.887, 39.954, 39.086, 37.927, 37.713, 37.277, 38.104, 39.519,214.105,233.899,256.197,275.012,286.253,290.433,291.376,291.252,291.191,288.805,289.063,286.878,288.392,287.769,
     9,07/02/19 00:08:21,41, 288.1440,  79.6700,1015.5160, 214.5500,1
    10,07/02/19 00:09:05,51,  0.00, 19.80,300.628, 69.204, 72.253, 73.109, 69.490, 69.313, 64.790, 61.419, 59.867, 54.737, 50.129, 46.910, 43.740, 43.175, 42.716, 41.519, 41.101, 39.088, 39.810, 38.614, 38.538, 40.657,215.873,235.503,256.979,275.367,286.105,289.639,289.142,290.188,288.694,287.961,287.930,285.988,287.011,287.302,
    11,07/02/19 00:09:27,51,  0.00, 90.00,300.664, 27.108, 28.308, 28.808, 27.347, 27.190, 25.097, 24.177, 23.955, 21.775, 20.155, 18.547, 17.392, 17.723, 16.721, 16.915, 16.938, 15.663, 16.394, 15.929, 15.842, 16.790,111.813,129.652,155.754,188.993,226.600,259.494,280.188,288.807,289.680,289.035,289.732,286.034,288.233,288.498,
    12,07/02/19 00:09:49,51,  0.00,160.20,300.646, 64.639, 67.577, 67.750, 64.518, 64.889, 60.110, 56.834, 55.500, 50.745, 46.965, 43.582, 41.166, 41.186, 39.780, 39.528, 39.026, 37.849, 37.666, 37.288, 36.869, 39.300,214.175,234.029,256.618,275.929,286.920,290.801,291.027,291.307,289.906,289.195,288.673,286.752,288.550,288.308,
    13,07/02/19 00:10:12,41, 288.1160,  79.6700,1015.5200, 214.6100,1
    14,07/02/19 00:10:56,51,  0.00, 19.80,300.648, 69.180, 71.945, 72.464, 69.412, 68.953, 64.636, 60.835, 59.587, 54.209, 49.627, 46.977, 43.433, 43.285, 42.496, 41.837, 40.990, 39.304, 39.789, 39.113, 39.677, 40.924,215.712,235.658,257.022,275.007,286.052,289.283,289.346,289.650,289.380,288.072,287.347,285.647,286.936,287.820,
    15,07/02/19 00:11:18,51,  0.00, 90.00,300.666, 27.307, 28.557, 28.718, 27.727, 27.420, 25.507, 24.245, 24.037, 21.882, 19.803, 18.608, 17.879, 17.705, 17.321, 17.351, 16.776, 16.180, 16.789, 16.196, 16.547, 17.109,111.842,130.061,155.949,188.914,226.234,259.614,279.999,288.104,290.691,289.491,289.466,286.096,288.013,287.997,
    16,07/02/19 00:11:40,51,  0.00,160.20,300.647, 64.990, 67.596, 67.426, 64.608, 64.425, 59.989, 56.958, 55.587, 50.678, 46.625, 43.300, 41.098, 41.007, 39.782, 39.774, 39.003, 37.481, 37.408, 37.215, 37.482, 39.403,214.020,234.660,256.603,275.697,286.867,290.811,290.957,291.793,291.229,289.939,288.522,287.307,288.289,287.746,
    17,07/02/19 00:12:03,41, 288.2020,  79.5100,1015.4420, 215.1500,1
    18,07/02/19 00:12:47,51,  0.00, 19.80,300.618, 68.917, 71.935, 72.288, 68.594, 68.606, 64.851, 60.782, 60.189, 54.086, 49.242, 47.347, 43.724, 42.889, 42.221, 41.804, 40.991, 39.317, 39.986, 38.972, 38.877, 40.617,215.540,235.363,256.581,275.360,285.863,289.385,289.834,289.587,289.197,287.774,287.677,285.408,286.673,285.842,
    19,07/02/19 00:13:09,51,  0.00, 90.00,300.641, 27.526, 28.527, 28.743, 27.027, 27.234, 25.719, 24.299, 24.525, 21.798, 19.554, 19.205, 17.610, 17.787, 17.109, 17.302, 17.021, 16.301, 16.932, 16.858, 16.153, 16.899,111.989,129.966,155.235,188.814,225.933,259.300,280.582,288.411,290.256,288.455,289.313,285.740,288.276,287.597,
    20,07/02/19 00:13:33,51,  0.00,160.20,300.651, 64.590, 67.178, 67.437, 64.366, 64.145, 60.197, 56.963, 56.069, 50.422, 46.529, 43.699, 40.828, 40.836, 39.562, 39.217, 38.603, 37.337, 37.541, 37.380, 36.929, 38.569,214.164,234.251,256.144,275.378,286.616,290.949,291.686,291.312,290.631,289.615,288.820,286.453,288.057,286.978,
    21,07/02/19 00:13:57,41, 288.1750,  79.2100,1015.4400, 215.1000,1
    22,07/02/19 00:14:40,51,  0.00, 19.80,300.625, 68.925, 72.292, 72.175, 68.406, 69.027, 64.393, 60.898, 59.643, 54.201, 49.675, 46.797, 42.935, 42.985, 42.081, 41.445, 40.825, 38.914, 39.450, 38.763, 39.027, 40.893,215.733,235.307,256.468,275.280,285.856,289.674,289.545,290.355,289.288,288.314,287.544,285.495,286.992,286.891,
    23,07/02/19 00:15:03,51,  0.00, 90.00,300.654, 26.960, 28.523, 28.731, 27.067, 27.641, 25.515, 24.637, 24.171, 21.547, 20.127, 18.510, 17.202, 17.939, 16.907, 17.067, 16.849, 15.806, 16.395, 16.248, 16.240, 17.444,112.066,129.883,155.802,188.452,225.886,259.149,280.305,288.634,290.191,289.139,289.084,286.186,288.481,288.366,
    24,07/02/19 00:15:25,51,  0.00,160.20,300.615, 64.312, 67.190, 67.155, 63.690, 64.144, 59.878, 56.892, 55.364, 50.427, 46.481, 43.471, 40.541, 40.873, 39.310, 39.228, 38.575, 37.079, 37.386, 37.252, 37.446, 39.337,214.010,233.857,256.382,275.322,286.671,290.812,291.231,291.648,290.553,288.938,288.644,286.752,288.044,288.154,
    25,07/02/19 00:15:49,41, 288.2020,  79.5600,1015.4620, 214.7000,1
    26,07/02/19 00:16:33,51,  0.00, 19.80,300.613, 68.931, 71.907, 71.924, 68.937, 68.569, 64.334, 60.925, 59.712, 54.211, 49.664, 46.979, 43.574, 42.862, 42.022, 41.379, 41.100, 39.271, 39.589, 39.123, 39.174, 41.067,215.499,235.505,256.862,274.988,285.784,289.829,289.795,290.047,289.273,288.341,288.221,286.500,287.638,287.523,
    27,07/02/19 00:16:55,51,  0.00, 90.00,300.586, 27.316, 28.224, 28.317, 27.467, 27.147, 25.408, 24.118, 23.886, 21.846, 19.874, 19.073, 17.872, 17.640, 17.061, 17.138, 17.286, 16.742, 16.733, 17.010, 16.821, 17.753,111.562,129.732,155.612,188.497,226.104,259.403,280.176,288.192,290.826,289.036,289.429,286.374,288.077,287.566,
    28,07/02/19 00:17:17,51,  0.00,160.20,300.636, 64.546, 67.037, 67.311, 64.058, 64.301, 60.138, 56.740, 55.703, 50.486, 46.491, 43.358, 40.981, 40.513, 39.510, 39.283, 38.941, 37.708, 37.629, 38.023, 37.881, 39.869,213.400,233.928,256.379,275.513,286.621,291.416,291.252,291.719,290.975,289.238,289.147,287.044,288.249,288.357,
    29,07/02/19 00:17:41,41, 288.1750,  79.1500,1015.2900, 215.1900,1
    30,07/02/19 00:18:25,51,  0.00, 19.80,300.618, 68.514, 71.710, 71.637, 68.614, 69.014, 64.311, 61.018, 59.583, 54.591, 49.365, 47.148, 43.292, 43.312, 41.790, 41.586, 40.990, 39.336, 39.446, 39.283, 39.483, 40.941,215.900,235.703,256.591,275.473,285.806,289.444,290.079,289.820,288.609,287.497,288.062,286.508,287.545,288.130,
    31,07/02/19 00:18:47,51,  0.00, 90.00,300.612, 26.879, 27.974, 27.997, 26.771, 27.264, 25.063, 23.949, 23.249, 21.900, 19.937, 18.655, 17.387, 17.866, 16.745, 17.174, 16.863, 16.308, 16.591, 16.532, 16.942, 16.643,112.113,130.125,155.568,188.937,225.922,259.057,280.871,288.665,289.791,289.195,289.853,286.511,288.674,288.482,
    32,07/02/19 00:19:09,51,  0.00,160.20,300.646, 64.293, 67.101, 66.751, 64.140, 64.509, 59.722, 56.669, 55.644, 50.442, 46.529, 43.406, 40.892, 40.866, 39.582, 39.618, 38.283, 37.879, 37.241, 37.219, 37.515, 39.081,214.410,234.239,256.171,275.484,286.606,290.950,291.567,291.120,289.976,288.881,289.056,287.427,288.387,288.646,
    33,07/02/19 00:19:33,41, 288.1160,  79.4700,1015.2740, 215.2300,1
    34,07/02/19 00:20:16,51,  0.00, 19.80,300.579, 69.210, 72.377, 72.597, 68.821, 68.617, 64.434, 61.114, 59.365, 54.859, 49.463, 47.288, 43.302, 43.303, 42.324, 41.981, 40.836, 39.386, 39.536, 38.733, 39.661, 41.409,216.116,235.870,257.171,275.035,286.001,289.683,289.967,290.121,289.127,287.415,288.015,285.975,287.732,288.320,
    35,07/02/19 00:20:39,51,  0.00, 90.00,300.596, 27.590, 28.531, 28.873, 27.146, 27.343, 25.673, 24.423, 23.866, 21.802, 19.704, 18.791, 17.533, 17.847, 16.993, 17.589, 16.611, 16.358, 16.630, 16.322, 17.188, 17.655,112.145,130.309,155.901,188.992,226.523,259.156,280.383,288.913,290.502,288.436,289.299,285.883,288.431,288.685,
    36,07/02/19 00:21:01,51,  0.00,160.20,300.616, 65.531, 68.152, 67.889, 64.376, 65.038, 60.621, 57.579, 56.071, 51.092, 46.802, 43.758, 41.051, 41.245, 40.029, 40.032, 39.028, 38.224, 37.582, 37.345, 38.138, 40.027,214.160,234.614,256.709,275.589,287.238,290.692,291.385,291.838,291.166,289.063,289.135,286.483,288.199,288.833,
    37,07/02/19 00:21:24,41, 288.0190,  79.5800,1015.5020, 215.4800,1
    38,07/02/19 00:22:08,51,  0.00, 19.80,300.565, 68.831, 71.986, 71.871, 68.752, 69.041, 64.722, 60.848, 59.560, 54.699, 49.805, 46.873, 43.581, 43.075, 42.011, 41.208, 40.880, 39.011, 39.152, 38.641, 39.117, 40.623,215.797,235.797,256.940,275.168,285.681,290.073,289.765,289.717,288.320,287.810,288.110,285.748,287.135,286.858,
    39,07/02/19 00:22:30,51,  0.00, 90.00,300.596, 26.930, 28.197, 27.963, 26.936, 27.419, 25.680, 24.096, 23.549, 21.597, 19.999, 18.328, 17.678, 17.725, 16.991, 16.953, 16.753, 15.795, 16.541, 16.418, 16.195, 17.234,111.969,130.366,155.844,188.723,225.676,259.285,280.408,288.102,290.251,288.912,289.349,286.375,288.558,287.718,
    40,07/02/19 00:22:52,51,  0.00,160.20,300.602, 65.207, 67.965, 67.460, 64.673, 65.164, 60.842, 57.583, 55.756, 50.926, 47.190, 43.949, 41.471, 41.568, 40.047, 39.702, 38.971, 37.671, 37.351, 37.555, 38.222, 39.696,213.871,234.502,256.664,275.131,286.418,290.745,291.273,291.326,290.516,289.308,288.779,286.630,287.472,287.531,
    41,07/02/19 00:23:16,41, 287.9210,  79.4800,1015.4180, 214.4800,1
    42,07/02/19 00:24:00,51,  0.00, 19.80,300.524, 69.169, 72.130, 72.884, 68.876, 69.160, 64.612, 61.022, 59.548, 54.072, 49.518, 46.876, 43.725, 42.324, 41.726, 41.232, 40.464, 39.137, 38.941, 38.346, 39.041, 40.773,215.865,235.720,257.266,275.425,286.391,289.916,289.929,289.782,289.970,287.805,287.787,286.288,287.303,287.379,
    43,07/02/19 00:24:22,51,  0.00, 90.00,300.536, 27.234, 28.196, 28.723, 27.531, 27.988, 25.594, 24.091, 23.606, 21.511, 19.968, 18.616, 17.469, 17.182, 16.941, 17.077, 16.542, 16.149, 16.141, 15.866, 15.994, 17.145,112.057,130.342,155.920,188.847,226.555,259.599,280.654,288.695,290.888,288.521,289.140,285.713,288.209,287.320,
    44,07/02/19 00:24:44,51,  0.00,160.20,300.547, 65.167, 67.702, 67.761, 64.562, 64.931, 59.745, 56.981, 55.619, 50.341, 47.003, 43.741, 41.137, 40.382, 39.620, 39.411, 38.499, 37.771, 37.269, 37.018, 37.241, 39.465,213.932,234.876,256.566,275.439,286.479,290.680,291.457,291.388,290.921,288.670,288.649,286.987,287.734,288.043,
    45,07/02/19 00:25:08,41, 287.9640,  79.9100,1015.1380, 214.6800,1
    46,07/02/19 00:25:52,51,  0.00, 19.80,300.498, 68.628, 71.931, 72.315, 68.562, 68.383, 64.121, 60.524, 59.701, 54.150, 49.695, 46.866, 43.075, 42.868, 41.798, 41.544, 40.619, 39.244, 39.299, 38.427, 39.228, 41.032,215.592,235.991,257.262,275.537,285.947,289.536,290.106,290.272,289.114,287.275,287.902,286.036,287.520,287.433,
    47,07/02/19 00:26:15,51,  0.00, 90.00,300.514, 26.875, 28.448, 28.682, 27.023, 27.271, 25.303, 24.197, 24.313, 21.632, 20.347, 18.705, 17.205, 17.628, 17.131, 17.262, 16.697, 16.110, 16.355, 16.065, 16.628, 17.580,111.840,130.229,155.965,189.170,226.234,259.189,280.678,289.167,290.430,288.342,289.265,285.631,288.125,288.120,
    48,07/02/19 00:26:37,51,  0.00,160.20,300.565, 64.994, 67.698, 67.543, 64.906, 64.606, 60.409, 57.493, 56.265, 50.621, 47.284, 43.786, 40.788, 40.940, 39.509, 39.856, 38.724, 37.734, 37.691, 37.262, 37.846, 39.939,214.017,234.524,256.833,276.214,286.719,290.629,291.573,291.611,290.416,288.659,289.045,286.893,288.480,287.996,
    49,07/02/19 00:27:01,41, 288.2300,  79.6900,1015.4600, 215.2500,1
    50,07/02/19 00:27:44,51,  0.00, 19.80,300.516, 68.867, 71.835, 72.149, 68.374, 68.741, 63.945, 60.415, 59.650, 54.026, 48.956, 46.981, 43.115, 43.121, 42.187, 41.455, 40.822, 39.221, 39.129, 38.511, 38.796, 41.053,215.817,235.274,257.182,275.074,285.588,289.230,289.618,290.183,289.396,288.482,287.638,286.308,287.032,288.153,
    51,07/02/19 00:28:07,51,  0.00, 90.00,300.529, 27.558, 28.221, 28.422, 27.323, 27.364, 25.453, 24.255, 24.078, 21.982, 19.981, 19.168, 17.602, 18.022, 17.239, 17.217, 16.940, 16.382, 16.412, 16.391, 16.077, 17.701,112.293,129.887,156.153,188.315,225.722,259.351,280.723,288.679,290.260,288.850,288.903,286.261,288.234,288.649,
    52,07/02/19 00:28:29,51,  0.00,160.20,300.547, 65.222, 67.903, 68.351, 64.542, 65.056, 60.376, 57.378, 56.227, 50.899, 46.920, 44.063, 41.639, 41.142, 39.823, 39.999, 39.017, 37.980, 37.579, 37.402, 37.394, 39.874,214.306,234.026,256.396,275.189,286.276,290.776,291.435,291.746,290.508,289.157,288.454,286.471,287.824,288.666,
    53,07/02/19 00:28:53,41, 288.1440,  79.4200,1015.3260, 214.9900,1
    54,07/02/19 00:29:37,51,  0.00, 19.80,300.553, 68.897, 72.338, 72.015, 68.907, 68.735, 64.139, 61.057, 59.372, 54.227, 49.239, 46.855, 43.544, 42.970, 41.688, 41.234, 41.103, 38.627, 39.360, 38.487, 39.104, 40.297,215.748,235.140,256.341,275.256,285.873,289.085,289.845,289.843,288.909,288.068,288.158,286.347,287.410,287.930,
    55,07/02/19 00:29:59,51,  0.00, 90.00,300.544, 27.088, 28.374, 28.166, 26.986, 26.846, 24.912, 23.681, 23.526, 21.468, 19.468, 18.739, 17.626, 17.519, 16.764, 17.112, 17.143, 15.630, 16.352, 15.857, 16.282, 16.698,111.965,129.756,154.993,188.612,226.186,259.113,280.525,288.269,290.424,289.302,289.490,285.675,288.678,288.026,
    56,07/02/19 00:30:21,51,  0.00,160.20,300.594, 65.031, 68.087, 67.789, 64.692, 64.841, 60.385, 57.185, 56.009, 51.508, 47.309, 44.198, 41.450, 41.132, 39.681, 39.419, 38.941, 37.219, 37.418, 37.418, 37.590, 39.028,213.900,233.594,255.530,275.559,286.851,290.226,291.573,291.390,290.994,289.375,288.719,286.828,288.562,288.677,
    57,07/02/19 00:30:45,41, 288.0460,  79.4500,1015.2640, 215.3800,1
    58,07/02/19 00:31:29,51,  0.00, 19.80,300.545, 68.810, 72.318, 71.894, 68.507, 68.241, 64.336, 60.785, 59.457, 53.820, 49.218, 46.581, 43.376, 42.953, 41.505, 41.455, 40.577, 39.219, 38.852, 38.213, 39.312, 40.294,216.133,235.585,256.952,275.591,285.970,289.391,289.392,290.533,290.227,288.253,287.640,285.856,287.697,287.409,
    59,07/02/19 00:31:51,51,  0.00, 90.00,300.570, 27.055, 28.430, 28.108, 26.815, 26.974, 25.209, 24.192, 23.615, 21.329, 19.604, 18.826, 17.672, 17.658, 17.124, 17.025, 17.283, 16.047, 16.691, 16.182, 16.580, 17.022,112.445,130.180,156.052,188.909,226.007,259.620,280.488,289.019,290.621,288.551,289.165,285.741,288.341,288.189,
    60,07/02/19 00:32:13,51,  0.00,160.20,300.585, 65.334, 68.152, 67.555, 64.647, 65.096, 60.221, 57.241, 55.906, 50.661, 46.901, 44.275, 41.346, 41.021, 39.824, 39.645, 38.869, 37.954, 37.708, 37.482, 37.453, 39.540,214.060,234.056,256.469,275.948,286.506,291.095,291.020,291.523,291.013,289.341,288.501,286.491,288.300,287.753,
    61,07/02/19 00:32:37,41, 288.1160,  79.3100,1015.0800, 214.7100,1
    62,07/02/19 00:33:21,51,  0.00, 19.80,300.544, 68.492, 72.272, 72.367, 68.656, 68.583, 64.257, 60.784, 59.084, 54.446, 48.918, 47.099, 43.594, 42.662, 41.488, 40.941, 40.966, 38.869, 39.028, 38.500, 38.966, 40.641,215.470,235.398,256.678,275.405,285.740,289.682,289.869,289.807,289.338,288.324,288.197,286.211,287.566,287.098,
    63,07/02/19 00:33:43,51,  0.00, 90.00,300.555, 27.258, 28.657, 28.600, 27.536, 27.048, 25.835, 24.277, 23.698, 22.109, 19.777, 18.810, 17.672, 17.412, 17.268, 17.099, 17.242, 16.075, 16.475, 16.431, 16.135, 17.467,111.882,129.846,155.736,188.839,225.626,259.473,280.605,287.996,290.629,289.053,289.337,286.220,288.181,288.311,
    64,07/02/19 00:34:05,51,  0.00,160.20,300.584, 65.377, 67.887, 67.858, 64.836, 64.392, 60.512, 57.076, 56.021, 51.276, 46.833, 43.947, 41.448, 40.640, 39.988, 39.454, 39.176, 37.650, 37.589, 37.430, 37.986, 40.415,213.835,234.360,256.254,275.399,286.529,290.665,291.426,290.904,290.633,289.145,288.596,286.718,287.933,288.109,
    65,07/02/19 00:34:29,41, 288.1440,  79.5200,1015.3040, 214.7300,1
    66,07/02/19 00:35:13,51,  0.00, 19.80,300.537, 68.332, 71.401, 71.581, 68.174, 68.043, 64.053, 60.482, 59.292, 54.062, 49.094, 46.786, 43.236, 42.727, 41.450, 41.047, 40.834, 38.739, 39.222, 38.775, 38.249, 40.546,215.416,235.554,256.566,274.844,285.804,289.704,290.103,289.939,289.387,287.640,288.103,286.387,287.668,287.887,
    67,07/02/19 00:35:35,51,  0.00, 90.00,300.572, 26.705, 27.706, 28.001, 26.246, 26.956, 25.258, 24.134, 23.613, 21.528, 19.674, 18.900, 17.459, 17.727, 17.496, 17.366, 16.921, 15.783, 16.448, 16.039, 15.693, 17.069,111.905,130.354,155.831,188.255,225.847,259.705,281.425,288.881,290.552,289.162,289.800,286.566,288.686,288.996,
    68,07/02/19 00:35:57,51,  0.00,160.20,300.573, 65.340, 67.766, 67.769, 64.334, 64.838, 60.359, 57.505, 56.392, 50.933, 46.851, 44.187, 41.362, 41.110, 40.123, 39.781, 39.224, 37.984, 37.822, 37.693, 37.614, 39.561,213.966,234.198,256.352,274.831,286.504,290.521,291.384,291.016,290.583,288.626,288.439,286.927,288.210,288.150,
    69,07/02/19 00:36:21,41, 288.0890,  79.3500,1015.3680, 214.5500,1
    70,07/02/19 00:37:05,51,  0.00, 19.80,300.550, 68.576, 72.301, 71.970, 68.344, 68.489, 64.493, 61.240, 59.708, 54.403, 49.787, 46.793, 43.264, 42.980, 41.962, 41.644, 40.483, 39.055, 39.320, 38.564, 38.873, 40.757,215.949,235.871,256.936,275.335,286.095,289.834,289.751,290.002,289.552,288.651,288.189,286.165,287.588,287.945,
    71,07/02/19 00:37:27,51,  0.00, 90.00,300.547, 26.878, 28.253, 28.184, 27.045, 27.381, 25.402, 24.083, 24.017, 21.754, 20.162, 18.914, 17.296, 17.722, 16.687, 17.366, 16.791, 15.889, 16.146, 16.005, 16.266, 17.683,112.383,130.550,155.829,189.205,226.306,259.631,280.626,288.956,290.565,289.147,289.066,286.181,288.549,288.821,
    72,07/02/19 00:37:49,51,  0.00,160.20,300.558, 65.051, 68.515, 68.058, 65.088, 65.193, 60.637, 57.557, 56.238, 50.872, 47.326, 44.068, 41.158, 41.343, 39.811, 39.804, 39.141, 37.852, 37.905, 37.656, 37.952, 40.033,213.973,234.502,256.277,275.925,286.744,290.880,290.972,291.404,290.353,289.293,288.662,286.822,288.246,288.383,
    73,07/02/19 00:38:12,41, 287.9760,  79.5500,1015.1040, 214.4500,1
    74,07/02/19 00:38:56,51,  0.00, 19.80,300.535, 68.731, 71.811, 71.932, 67.937, 68.199, 64.436, 61.092, 59.492, 54.050, 49.001, 46.772, 43.024, 42.743, 41.785, 41.199, 40.632, 38.644, 39.018, 38.121, 39.222, 40.915,215.771,235.865,256.971,275.509,285.672,289.881,289.788,290.603,289.183,287.863,287.841,286.301,287.893,287.654,
    75,07/02/19 00:39:18,51,  0.00, 90.00,300.548, 26.849, 28.350, 28.222, 26.299, 26.959, 25.221, 24.493, 23.727, 21.402, 19.781, 18.919, 17.367, 17.178, 16.769, 17.499, 16.540, 15.975, 16.117, 16.049, 16.313, 17.574,111.606,130.058,155.708,188.717,225.928,259.641,280.533,289.056,290.537,288.952,289.219,286.603,288.892,288.584,
    76,07/02/19 00:39:41,51,  0.00,160.20,300.548, 65.828, 68.965, 68.120, 64.954, 65.060, 61.303, 58.277, 56.605, 51.289, 47.383, 44.499, 41.669, 41.806, 40.297, 40.309, 39.109, 37.823, 37.542, 37.666, 38.188, 39.913,214.146,233.979,256.273,275.609,286.408,290.956,291.059,291.357,290.129,288.916,288.772,287.194,288.312,288.048,
    77,07/02/19 00:40:05,41, 287.9640,  79.8800,1015.3040, 214.4000,1
    78,07/02/19 00:40:48,51,  0.00, 19.80,300.500, 68.652, 71.610, 72.203, 67.883, 68.234, 63.361, 60.598, 59.088, 53.642, 48.774, 46.443, 43.188, 42.766, 41.448, 41.151, 40.247, 38.824, 39.064, 38.252, 38.248, 40.479,215.891,235.688,256.884,275.848,286.093,289.631,289.778,290.405,289.471,287.277,287.683,286.560,287.511,287.641,
    79,07/02/19 00:41:11,51,  0.00, 90.00,300.495, 26.623, 27.855, 28.441, 26.304, 26.644, 23.936, 23.899, 23.243, 21.272, 19.325, 18.391, 17.140, 17.615, 16.883, 16.697, 16.529, 15.628, 16.533, 16.131, 15.772, 16.797,112.040,129.735,155.680,188.875,226.189,259.461,280.728,288.967,291.113,289.447,289.942,286.785,288.547,288.850,
    80,07/02/19 00:41:33,51,  0.00,160.20,300.509, 65.869, 68.561, 68.715, 64.959, 65.112, 60.127, 57.669, 56.388, 51.025, 46.826, 44.201, 41.683, 41.567, 40.375, 40.180, 39.066, 37.794, 37.899, 37.536, 37.392, 39.391,214.374,234.509,256.506,275.481,286.910,290.857,291.034,291.172,290.584,288.334,288.693,286.570,288.138,287.598,
    81,07/02/19 00:41:56,41, 287.9480,  80.0800,1015.2640, 214.4600,1
    82,07/02/19 00:42:40,51,  0.00, 19.80,300.514, 68.060, 71.287, 71.201, 67.452, 68.042, 63.555, 59.989, 58.390, 53.566, 48.361, 46.190, 42.640, 42.233, 41.751, 41.260, 40.340, 38.637, 39.012, 38.285, 38.617, 40.371,215.655,235.335,256.388,275.048,285.720,290.019,289.509,290.408,289.579,287.912,288.155,286.032,287.738,287.749,
    83,07/02/19 00:43:02,51,  0.00, 90.00,300.485, 26.684, 27.895, 27.875, 26.571, 26.335, 25.094, 23.828, 22.788, 21.544, 19.074, 18.454, 17.029, 16.978, 16.828, 17.348, 16.417, 15.882, 16.657, 16.350, 16.830, 17.619,111.773,129.730,155.119,188.555,225.924,259.866,280.158,288.511,290.947,289.166,289.997,286.599,288.832,288.914,
    84,07/02/19 00:43:25,51,  0.00,160.20,300.514, 65.508, 68.457, 68.324, 65.280, 65.328, 60.996, 57.533, 56.585, 51.424, 46.856, 44.397, 41.646, 41.345, 40.425, 40.510, 39.186, 38.026, 38.088, 38.071, 38.184, 40.314,214.445,234.400,255.964,274.647,286.217,290.948,291.073,290.646,290.535,288.377,288.765,287.017,288.143,288.193,
    85,07/02/19 00:43:49,41, 287.9760,  80.2500,1015.1300, 214.1800,1
    86,07/02/19 00:44:32,51,  0.00, 19.80,300.459, 68.077, 71.673, 71.798, 67.909, 67.580, 63.786, 60.466, 59.216, 53.735, 49.253, 46.892, 43.416, 42.563, 41.621, 41.260, 40.350, 38.684, 39.119, 38.679, 38.746, 40.408,215.676,235.300,257.027,275.459,285.946,289.991,290.281,289.952,289.274,287.133,287.564,286.685,287.290,287.048,